Regional Weather Roundup
Issued by NWS Wakefield, VA

Home | Current Version | Previous Version | Text Only | Print | Product List | Glossary On
Versions: 1 2 3 4 5 6 7 8 9 10 11 12 13 14 15 16 17 18 19 20 21 22 23 24 25 26 27 28
000
ASUS41 KAKQ 242010
RWRAKQ

REGIONAL WEATHER ROUNDUP
NATIONAL WEATHER SERVICE WAKEFIELD VA
400 PM EDT THU APR 24 2014

Note: "fair" indicates few or no clouds below 12,000 feet with no
significant weather and/or obstructions to visibility. * = Denotes
station may not report precipitation (e.g., rain,snow,etc.),
thunder or fog.

VAZ042-051-052>054-056-242100-
NORTHERN VIRGINIA

CITY           SKY/WX    TMP DP  RH WIND       PRES   REMARKS
WASH NATIONAL  MOSUNNY   65  24  21 N9        30.02F
DULLES         MOSUNNY   62  19  19 NW6       30.02F
FORT BELVOIR   SUNNY     64  21  19 N8        30.02F
QUANTICO       MOSUNNY   65  18  16 W8        30.03F
FREDERICKSBRG* SUNNY     66  22  19 NW3       30.02F
STAFFORD*      SUNNY     64  27  24 CALM      30.06F
WARRENTON      SUNNY     65  32  28 W3        30.02F
CULPEPER*      SUNNY     66   9  10 S6        30.02F
MANASSAS*      NOT AVBL
LEESBURG*      SUNNY     63  28  27 N8        30.03F
WINCHESTER     SUNNY     63  21  20 W6        30.01F
$$

VAZ048-049-060>072-079>083-242100-
CENTRAL AND SOUTH CENTRAL VIRGINIA...AND NORTH CENTRAL NORTH CAROLINA

CITY           SKY/WX    TMP DP  RH WIND       PRES   REMARKS
RICHMOND       PTSUNNY   67  17  14 W8        30.02F
CHESTERFIELD*  CLEAR     66  25  20 N9        30.03F
HANOVER        SUNNY     65  17  15 MISG      30.04F
TAPPAHANNOCK*  SUNNY     66   6   9 NW7       30.02F
CHARLOTTSVILLE SUNNY     66  21  18 S5        30.01F
ORANGE*        SUNNY     63  23  22 CALM      30.03F
LOUISA*        SUNNY     66  23  19 N3        30.01F
FARMVILLE*     MOSUNNY   68  18  14 S3        29.99F
SOUTH HILL*    MOSUNNY   68  28  22 E3        30.07F
ROANOKE RAPIDS PTCLDY    70  28  21 S6        30.02F
RALEIGH        PTSUNNY   70  35  27 W6        30.02F
$$

VAZ088>098-242100-
SOUTHEAST VIRGINIA

CITY           SKY/WX    TMP DP  RH WIND       PRES   REMARKS
NORFOLK        SUNNY     63  30  28 NE7       30.01F
VIRGINIA BEACH PTSUNNY   65  28  24 N7        30.01F
NORFOLK NAVAL  PTSUNNY   67  22  18 W14       30.03F
WEST POINT*      N/A    N/A N/A N/A MISG        N/A
NEWPORT NEWS   SUNNY     68  24  19 NW9       30.02F
LANGLEY AFB    SUNNY     65  35  33 E9        30.02F
FORT EUSTIS    SUNNY     64  34  32 NW9       30.00F
WILLIAMSBURG*  SUNNY     70  30  23 W10       30.02F
FRANKLIN*      SUNNY     68  25  19 CALM      30.02F
WAKEFIELD      SUNNY     68  25  19 VRB5      30.02F
$$

VAZ020-022-025-037-045-242100-
WESTERN AND SOUTHWEST VIRGINIA

CITY           SKY/WX    TMP DP  RH WIND       PRES   REMARKS
STAUNTON*      SUNNY     62  25  24 SE5       30.03F
HOT SPRINGS VA MOSUNNY   57  19  23 SW5       30.07F
LYNCHBURG      MOSUNNY   67  23  19 VRB3      30.02F
DANVILLE       MOSUNNY   70  31  23 W6        30.01F
MARTINSVILLE   SUNNY     73  33  23 S6        30.02F
ROANOKE        PTSUNNY   67  27  22 VRB3      30.02F
BLACKSBURG     SUNNY     68  36  30 CALM      30.02F
DUBLIN*        SUNNY     69  33  26 SE3       30.00F
MARION*        SUNNY     71  24  17 W8G17     29.99F
HILLSVILLE*    SUNNY     64  27  24 SE8       30.04F
RICHLANDS*     CLEAR     74  23  14 NW6       29.98F
WISE*          MOSUNNY   73  19  13 SW6       29.97F
ABINGDON*      SUNNY     75  24  15 W3        29.96F
$$

MDZ021>025-VAZ099-100-242100-
SOUTHERN MARYLAND AND THE DELMARVA PENINSULA

CITY           SKY/WX    TMP DP  RH WIND       PRES   REMARKS
PATUXENT RIVER MOSUNNY   58  28  32 E7        30.01F
BAY BRIDGE APT SUNNY     61  23  23 N8        30.01F
LEONARDTOWN    SUNNY     63  18  17 NW3G16    30.02F
DOVER          SUNNY     61  21  21 NW14G23   29.95F
GEORGETOWN     SUNNY     62  20  19 N12G18    29.99F
EASTON         SUNNY     63  27  25 NW9G23    30.05F
CAMBRIDGE      SUNNY     61  19  20 NW12G20   30.01F
SALISBURY      SUNNY     64  20  18 NW13G20   29.99F
OCEAN CITY     SUNNY     62  23  22 NW15G24   29.98F
WALLOPS ISLAND SUNNY     62  27  26 NW18      30.00F
ACCOMACK*      SUNNY     61  23  23 NW10      30.01F
$$

NCZ012>017-030>032-242100-
EASTERN NORTH CAROLINA

CITY           SKY/WX    TMP DP  RH WIND       PRES   REMARKS
ELIZABETH CITY SUNNY     68  27  21 N3        30.02F
AHOSKIE*       MOSUNNY   65  30  26 CALM      30.03F
EDENTON*       SUNNY     67  31  26 SW3       30.03F
CURRITUCK*     SUNNY     64  32  30 E7        30.03F
KILL DEVIL HLS SUNNY     55  36  48 NE5       30.03F
MANTEO         SUNNY     58  38  49 E8        30.05F
CAPE HATTERAS  SUNNY     60  40  47 SE6       30.06F
GOLDSBORO      SUNNY     69  31  24 VRB2      30.01F
WASHINGTON     SUNNY     66   6   9 S3        30.04F
GREENVILLE     SUNNY     68  30  24 CALM      30.05F
NEW BERN       SUNNY     69  33  26 N5        30.04F
WILMINGTON     SUNNY     68  40  35 SE10      30.04F
$$

VAZ048-242100-
ELSEWHERE

CITY           SKY/WX    TMP DP  RH WIND       PRES   REMARKS
HARRISBURG PA  MOSUNNY   66  18  15 NW14      29.98F
BALTIMORE      MOSUNNY   62  20  19 NW7G16    30.00F
ANNAPOLIS      SUNNY     60  27  28 NW13      30.00F
ANDREWS AFB    SUNNY     61  20  20 W9        30.01F
WILMINGTON DE  SUNNY     62  21  20 W14       29.99F
PHILADELPHIA   SUNNY     63  14  15 NW20G29   29.96F
WILDWOOD NJ*   SUNNY     57  27  30 W16G24    29.99S
ATLANTIC CITY  SUNNY     60  16  18 W17G26    29.93F
HENDERSON NC   SUNNY     68  28  22 SW7       30.02F
GREENSBORO     CLOUDY    70  33  25 VRB3      30.01F
ROCKY MOUNT    SUNNY     69  30  23 VRB3      30.03F
FAYETTEVILLE   SUNNY     71  32  23 S3        30.01F
CHARLOTTE      MOSUNNY   71  38  29 CALM      30.01F
$$

VAZ100-242100-
MARINE

STATION/POSITION TIME  TEMP    WIND        PRES    WAVE   SWELL
                       AIR SEA DIR/SP/G            HT/PER HT/PER
                 (UTC) (F)     (DEG/KT/KT) (MB)    (FT/S) (FT/S)
44066 TX TWR #4  2000   48 46  280/ 19/ 21 1010.8F   6/ 7
CAPE MAY NJ      2000   56 58  330/ 13/ 17 1015.0F
LEWES DE         2000   55 52  340/ 12/ 15 1014.6F
15NM E FENWICK I 2000   49 47              1015.3F   3/ 5
OCEAN-CITY-INLET 2000   58 49  320/ 14/ 21 1014.9F
WACHAPREAGUE VA  2000   60 57  340/  4/ 12 1015.9F
THOMAS POINT MD  2000   59 53  330/  7/  9 1016.4F
GOOSES REEF MD   2000   54     130/  4/  6   N/A
COVE POINT MD    2000   54      60/  5/  6 1016.2F
SOLOMONS ISLAND  2000      56                N/A
BISHOPS HEAD MD  2000   55 58  250/ 10/ 11 1016.1F
PINEY POINT MD   2000          310/ 15/ 16   N/A
POTOMAC MD       2000   56     310/ 12/ 14 1016.1F
CAMBRIDGE MD     2000   57 56  310/  9/ 12 1015.8F
LEWISETTA VA     2000   60 58  300/  7/  8 1016.3F
RAPPAHANNOCK LGT 2000           10/  8/  8 1017.0F
STINGRAY PT      2000   55      80/  8/ 10 1016.9F
YORK RVR RNG VA  2000   55     110/  9/  9 1015.7F
YORKTOWN VA      2000   61 56  300/  5/  6 1016.2F
JAMESTOWN VA     2000   61     300/  8/ 10   N/A
DOMINION TERM VA 2000   61     330/  9/ 11 1016.6F
KIPTOPEKE VA     2000      57  320/  5/  6   N/A
CHES BAY BRIDGE  2000   55 54   30/  6/  6 1016.6F
CAPE HENRY VA    2000   57     330/  4/  6   N/A
CHESAPEAKE LGHT  1900   52     290/  6/  6 1018.2F
WILLOUBY STN VA  2000   56      80/  9/ 10 1015.7F
S CRANEY ISL VA  2000          300/  7/ 11 1016.5F
CAPE HENRY BUOY  2000      49                N/A     2/ 7
1ST LANDING BUOY 2000      50                N/A     2/14   2/14
64NM E OF VA BCH 2000   49 49  280/ 10/ 12 1017.1F   5/ 7   3/ 7
DUCK PIER NC     2000   54 54  120/  6/  7 1016.6F
44100 DUCK FRF   2000      50                N/A     4/ 8
44056 DUCK FRF   2000      54                N/A     3/ 8
OREGON INLET NC  2000   53 57  100/  4/  6 1017.7R
HATTERAS NC      2000   59 62  200/  3/  5 1018.1F
CAPE LOOKOUT NC  1900   58     100/  8/  9 1018.1F
FRYING PAN SHLS  2000   64 68   70/ 14/ 17 1016.9F   4/ 6   2/ 9
$$



USA.gov is the U.S. government's official web portal to all federal, state and local government web resources and services.